| time (UTC) | temp F | wind direction | speed MPH | gust MPH | rain 1hr in | rain 24hr in | rain mn in | humidity % | barometer mb |
| 20260508132301 | 62 | 108 | 0.0 | 0.0 | 0.00 | 0.00 | 0.00 | 1 | 974.3 |
| 20260508130122 | 61 | 108 | 0.0 | 0.0 | 0.00 | 0.00 | 0.00 | 5 | 975.1 |
| 20260508125136 | 61 | 108 | 0.0 | 0.0 | 0.00 | 0.00 | 0.00 | 4 | 974.9 |
| 20260508124148 | 61 | 108 | 0.0 | 0.0 | 0.00 | 0.00 | 0.00 | 3 | 975.1 |
| 20260508123130 | 61 | 108 | 0.0 | 0.0 | 0.00 | 0.00 | 0.00 | 5 | 975.0 |
| 20260508122141 | 61 | 108 | 0.0 | 0.0 | 0.00 | 0.00 | 0.00 | 4 | 975.1 |
| 20260508120048 | 60 | 108 | 0.0 | 0.0 | 0.00 | 0.00 | 0.00 | 6 | 975.2 |
| 20260508115057 | 60 | 108 | 0.0 | 0.0 | 0.00 | 0.00 | 0.00 | 6 | 975.3 |
| 20260508112923 | 61 | 108 | 0.0 | 0.0 | 0.00 | 0.00 | 0.00 | 1 | 975.6 |
| 20260508111903 | 60 | 108 | 0.0 | 0.0 | 0.00 | 0.00 | 0.00 | 4 | 975.7 |
| 20260508105818 | 60 | 108 | 0.0 | 0.0 | 0.00 | 0.00 | 0.00 | 7 | 975.3 |
| 20260508104834 | 60 | 108 | 0.0 | 0.0 | 0.00 | 0.00 | 0.00 | 7 | 975.1 |
| 20260508102651 | 61 | 108 | 0.0 | 0.0 | 0.00 | 0.00 | 0.00 | 2 | 975.0 |
| 20260508101651 | 60 | 108 | 0.0 | 0.0 | 0.00 | 0.00 | 0.00 | 4 | 975.4 |
| 20260508100639 | 60 | 108 | 0.0 | 0.0 | 0.00 | 0.00 | 0.00 | 8 | 975.6 |
| 20260508095639 | 60 | 108 | 0.0 | 0.0 | 0.00 | 0.00 | 0.00 | 5 | 975.8 |
| 20260508094656 | 60 | 108 | 0.0 | 0.0 | 0.00 | 0.00 | 0.00 | 7 | 975.8 |
| 20260508092508 | 60 | 108 | 0.0 | 0.0 | 0.00 | 0.00 | 0.00 | 1 | 975.6 |
| 20260508091530 | 61 | 108 | 0.0 | 0.0 | 0.00 | 0.00 | 0.00 | 1 | 975.5 |
| 20260508090527 | 60 | 108 | 0.0 | 0.0 | 0.00 | 0.00 | 0.00 | 2 | 975.4 |
| 20260508085529 | 60 | 108 | 0.0 | 0.0 | 0.00 | 0.00 | 0.00 | 11 | 975.4 |
| 20260508084534 | 60 | 108 | 0.0 | 0.0 | 0.00 | 0.00 | 0.00 | 29 | 975.3 |
| 20260508083538 | 60 | 108 | 0.0 | 0.0 | 0.00 | 0.00 | 0.00 | 28 | 975.3 |
| 20260508082553 | 60 | 108 | 0.0 | 0.0 | 0.00 | 0.00 | 0.00 | 27 | 975.4 |
| 20260508081519 | 60 | 108 | 0.0 | 0.0 | 0.00 | 0.00 | 0.00 | 27 | 975.3 |
| 20260508080504 | 60 | 108 | 0.0 | 0.0 | 0.00 | 0.00 | 0.00 | 27 | 975.5 |
| 20260508075503 | 60 | 108 | 0.0 | 0.0 | 0.00 | 0.00 | 0.00 | 27 | 975.3 |
| 20260508074517 | 60 | 108 | 0.0 | 0.0 | 0.00 | 0.00 | 0.00 | 24 | 975.2 |
| 20260508073453 | 60 | 108 | 0.0 | 0.0 | 0.00 | 0.00 | 0.00 | 22 | 975.1 |
| 20260508072455 | 60 | 108 | 0.0 | 0.0 | 0.00 | 0.00 | 0.00 | 18 | 975.2 |
| 20260508071427 | 60 | 108 | 0.0 | 0.0 | 0.00 | 0.00 | 0.00 | 10 | 975.2 |
| 20260508065355 | 59 | 108 | 0.0 | 0.0 | 0.00 | 0.00 | 0.00 | 1 | 975.8 |
| 20260508064322 | 59 | 108 | 0.0 | 0.0 | 0.00 | 0.00 | 0.00 | 1 | 975.9 |
| 20260508061023 | 59 | 108 | 0.0 | 0.0 | 0.00 | 0.00 | 0.00 | 1 | 976.4 |
| 20260508060042 | 59 | 108 | 0.0 | 0.0 | 0.00 | 0.00 | 0.00 | 1 | 976.2 |
| 20260508055106 | 59 | 108 | 0.0 | 0.0 | 0.00 | 0.00 | 0.00 | 1 | 975.9 |
| 20260508054056 | 59 | 108 | 0.0 | 0.0 | 0.00 | 0.00 | 0.00 | 1 | 976.0 |
| 20260508053108 | 59 | 108 | 0.0 | 0.0 | 0.00 | 0.00 | 0.00 | 1 | 976.3 |
| 20260508052053 | 59 | 108 | 0.0 | 0.0 | 0.00 | 0.00 | 0.00 | 1 | 976.2 |
| 20260508051038 | 59 | 108 | 0.0 | 0.0 | 0.00 | 0.00 | 0.00 | 1 | 976.1 |
| 20260508044950 | 59 | 108 | 0.0 | 0.0 | 0.00 | 0.00 | 0.00 | 1 | 976.0 |
| 20260508043938 | 59 | 108 | 0.0 | 0.0 | 0.00 | 0.00 | 0.00 | 1 | 976.8 |
| 20260508041806 | 59 | 108 | 0.0 | 0.0 | 0.00 | 0.00 | 0.00 | 1 | 975.6 |
| 20260508040813 | 59 | 108 | 0.0 | 0.0 | 0.00 | 0.00 | 0.00 | 1 | 976.1 |
| 20260508035740 | 58 | 108 | 0.0 | 0.0 | 0.00 | 0.00 | 0.00 | 1 | 976.8 |
| 20260508034749 | 59 | 108 | 0.0 | 0.0 | 0.00 | 0.00 | 0.00 | 4 | 976.5 |
| 20260508033724 | 59 | 108 | 0.0 | 0.0 | 0.00 | 0.00 | 0.00 | 15 | 976.9 |
| 20260508031649 | 59 | 108 | 0.0 | 0.0 | 0.00 | 0.00 | 0.00 | 29 | 977.3 |
| 20260508030710 | 59 | 108 | 0.0 | 0.0 | 0.00 | 0.00 | 0.00 | 36 | 977.2 |
| 20260508025717 | 59 | 108 | 0.0 | 0.0 | 0.00 | 0.00 | 0.00 | 43 | 976.6 |
| 20260508023602 | 60 | 108 | 0.0 | 0.0 | 0.00 | 0.00 | 0.00 | 50 | 975.7 |
| 20260508022605 | 60 | 108 | 0.0 | 0.0 | 0.00 | 0.00 | 0.00 | 52 | 975.5 |
| 20260508021536 | 60 | 108 | 0.0 | 0.0 | 0.00 | 0.00 | 0.00 | 55 | 974.7 |
| 20260508014315 | 60 | 109 | 0.0 | 0.0 | 0.00 | 0.00 | 0.00 | 61 | 975.1 |
| 20260508013339 | 60 | 109 | 0.0 | 0.0 | 0.00 | 0.00 | 0.00 | 62 | 975.0 |
| 20260508012317 | 60 | 109 | 0.0 | 0.0 | 0.00 | 0.00 | 0.00 | 62 | 974.7 |
| 20260508011310 | 61 | 100 | 0.0 | 0.0 | 0.00 | 0.00 | 0.00 | 63 | 974.8 |
| 20260508010318 | 61 | 99 | 0.0 | 0.0 | 0.00 | 0.00 | 0.00 | 63 | 974.8 |
| 20260508004242 | 62 | 99 | 0.0 | 0.0 | 0.00 | 0.00 | 0.00 | 64 | 975.8 |
| 20260508002115 | 64 | 98 | 0.0 | 0.0 | 0.00 | 0.00 | 0.00 | 63 | 975.6 |
| 20260508001105 | 64 | 98 | 0.0 | 0.0 | 0.00 | 0.00 | 0.00 | 63 | 975.7 |
| 20260508000041 | 65 | 98 | 0.0 | 0.0 | 0.00 | 0.00 | 0.00 | 62 | 976.0 |
| 20260507235027 | 65 | 98 | 0.0 | 0.0 | 0.00 | 0.00 | 0.00 | 63 | 976.4 |
| 20260507232858 | 66 | 98 | 0.0 | 0.0 | 0.00 | 0.00 | 0.00 | 62 | 976.4 |
| 20260507231854 | 66 | 98 | 0.0 | 0.0 | 0.00 | 0.00 | 0.00 | 62 | 976.6 |
| 20260507230916 | 66 | 98 | 0.0 | 0.0 | 0.00 | 0.00 | 0.00 | 61 | 976.2 |
| 20260507225940 | 67 | 98 | 0.0 | 0.0 | 0.00 | 0.00 | 0.00 | 62 | 976.2 |
| 20260507224910 | 66 | 98 | 0.0 | 0.0 | 0.00 | 0.00 | 0.00 | 62 | 976.5 |
| 20260507223919 | 67 | 98 | 0.0 | 0.0 | 0.00 | 0.00 | 0.00 | 61 | 976.3 |
| 20260507222927 | 67 | 97 | 0.0 | 0.0 | 0.00 | 0.00 | 0.00 | 62 | 976.8 |
| 20260507221900 | 66 | 97 | 0.0 | 0.0 | 0.00 | 0.00 | 0.00 | 62 | 976.8 |
| 20260507215718 | 67 | 97 | 0.0 | 0.0 | 0.00 | 0.00 | 0.00 | 61 | 977.1 |
| 20260507214644 | 68 | 97 | 0.0 | 0.0 | 0.00 | 0.00 | 0.00 | 60 | 977.0 |
| 20260507213636 | 68 | 97 | 0.0 | 0.0 | 0.00 | 0.00 | 0.00 | 60 | 977.5 |
| 20260507212620 | 68 | 107 | 0.0 | 0.0 | 0.00 | 0.00 | 0.00 | 60 | 977.6 |
| 20260507211633 | 67 | 109 | 0.0 | 0.0 | 0.00 | 0.00 | 0.00 | 61 | 977.5 |
| 20260507210604 | 65 | 109 | 0.0 | 0.0 | 0.00 | 0.00 | 0.00 | 61 | 976.8 |
| 20260507205530 | 64 | 109 | 0.0 | 0.0 | 0.00 | 0.00 | 0.00 | 61 | 977.2 |
| 20260507204535 | 64 | 109 | 0.0 | 0.0 | 0.00 | 0.00 | 0.00 | 62 | 977.5 |
| 20260507203550 | 64 | 109 | 0.0 | 0.0 | 0.00 | 0.00 | 0.00 | 62 | 977.5 |
| 20260507202611 | 65 | 109 | 0.0 | 0.0 | 0.00 | 0.00 | 0.00 | 61 | 977.6 |
| 20260507200411 | 65 | 109 | 0.0 | 0.0 | 0.00 | 0.00 | 0.00 | 61 | 977.9 |
| 20260507195434 | 65 | 111 | 0.0 | 0.0 | 0.00 | 0.00 | 0.00 | 60 | 978.0 |
| 20260507194406 | 64 | 112 | 0.0 | 0.0 | 0.00 | 0.00 | 0.00 | 60 | 978.0 |
| 20260507193332 | 63 | 113 | 0.0 | 0.0 | 0.00 | 0.00 | 0.00 | 60 | 978.5 |
| 20260507192337 | 63 | 113 | 0.0 | 0.0 | 0.00 | 0.00 | 0.00 | 59 | 978.6 |
| 20260507190154 | 61 | 111 | 0.0 | 0.0 | 0.00 | 0.00 | 0.00 | 58 | 978.7 |
| 20260507185217 | 61 | 114 | 0.0 | 0.0 | 0.00 | 0.00 | 0.00 | 57 | 978.6 |
| 20260507184210 | 61 | 114 | 0.0 | 0.0 | 0.00 | 0.00 | 0.00 | 58 | 977.8 |
| 20260507183231 | 62 | 111 | 0.0 | 0.0 | 0.00 | 0.00 | 0.00 | 57 | 978.6 |
| 20260507182244 | 61 | 111 | 0.0 | 0.0 | 0.00 | 0.00 | 0.00 | 56 | 978.0 |
| 20260507181212 | 62 | 111 | 0.0 | 0.0 | 0.00 | 0.00 | 0.00 | 57 | 978.3 |
| 20260507180221 | 62 | 111 | 0.0 | 0.0 | 0.00 | 0.00 | 0.00 | 58 | 978.3 |
| 20260507175209 | 63 | 106 | 0.0 | 0.0 | 0.00 | 0.00 | 0.00 | 57 | 978.8 |
| 20260507174145 | 63 | 145 | 0.0 | 1.0 | 0.00 | 0.00 | 0.00 | 49 | 978.9 |
| 20260507173122 | 63 | 138 | 0.0 | 0.0 | 0.00 | 0.00 | 0.00 | 24 | 978.7 |
| 20260507170944 | 60 | 169 | 0.0 | 0.0 | 0.00 | 0.00 | 0.00 | 1 | 978.3 |
| 20260507165929 | 60 | 159 | 0.0 | 1.0 | 0.00 | 0.00 | 0.00 | 1 | 977.9 |
| 20260507164941 | 60 | 329 | 0.0 | 0.0 | 0.00 | 0.00 | 0.00 | 1 | 978.3 |
| 20260507163924 | 59 | 329 | 0.0 | 0.0 | 0.00 | 0.00 | 0.00 | 1 | 979.5 |
| 20260507162928 | 59 | 329 | 0.0 | 0.0 | 0.00 | 0.00 | 0.00 | 1 | 979.3 |
| 20260507155553 | 59 | 0 | 0.0 | 0.0 | 0.00 | 0.00 | 0.00 | 1 | 979.9 |
| 20260507154531 | 60 | 12 | 0.0 | 0.0 | 0.00 | 0.00 | 0.00 | 1 | 979.5 |
| 20260507153555 | 59 | 11 | 0.0 | 0.0 | 0.00 | 0.00 | 0.00 | 1 | 979.4 |
| 20260507152552 | 59 | 12 | 0.0 | 0.0 | 0.00 | 0.00 | 0.00 | 1 | 980.0 |
| 20260507151545 | 59 | 0 | 0.0 | 0.0 | 0.00 | 0.00 | 0.00 | 1 | 979.7 |
| 20260507150519 | 59 | 5 | 0.0 | 0.0 | 0.00 | 0.00 | 0.00 | 1 | 979.8 |
| 20260507145527 | 59 | 5 | 0.0 | 0.0 | 0.00 | 0.00 | 0.00 | 1 | 979.9 |
| 20260507144540 | 59 | 5 | 0.0 | 0.0 | 0.00 | 0.00 | 0.00 | 1 | 979.9 |
| 20260507143515 | 59 | 5 | 0.0 | 0.0 | 0.00 | 0.00 | 0.00 | 1 | 979.9 |
| 20260507141355 | 59 | 5 | 0.0 | 0.0 | 0.00 | 0.00 | 0.00 | 1 | 979.3 |
| 20260507140323 | 59 | 5 | 0.0 | 0.0 | 0.00 | 0.00 | 0.00 | 1 | 979.5 |
| 20260507135321 | 58 | 5 | 0.0 | 0.0 | 0.00 | 0.00 | 0.00 | 1 | 979.3 |
| 20260507134334 | 58 | 5 | 0.0 | 0.0 | 0.00 | 0.00 | 0.00 | 1 | 979.2 |